Regional Weather Roundup
Issued by NWS

Home | Current Version | Previous Version | Graphics & Text | Print | Product List | Glossary On
Versions: 1 2 3 4 5 6 7 8 9 10 11 12 13 14 15 16 17 18 19 20 21 22 23 24 25 26 27 28 29 30 31 32 33 34 35 36 37 38 39 40 41 42 43 44 45 46 47 48 49 50
000
ASUS45 KBOI 291010
RWRID

IDAHO REGIONAL WEATHER ROUNDUP
NATIONAL WEATHER SERVICE BOISE ID
400 AM MDT WED JUL 29 2015

NOTE: "FAIR" INDICATES FEW OR NO CLOUDS BELOW 12000 FEET
WITH NO SIGNIFICANT WEATHER AND/OR OBSTRUCTIONS TO VISIBILITY

IDZ012-014-291100-
SOUTHWEST IDAHO


CITY           SKY/WX    TMP DP  RH WIND       PRES   REMARKS
BOISE          CLEAR     60  37  42 S3        30.21R
CALDWELL       CLEAR     52  36  54 CALM      30.21S
MOUNTAIN HOME  CLEAR     49  35  57 E3        30.21R
$$

IDZ016-017-291100-
SOUTHCENTRAL IDAHO


CITY           SKY/WX    TMP DP  RH WIND       PRES   REMARKS
BURLEY         CLEAR     45  39  79 CALM      30.28R
JEROME         CLEAR     52  32  46 E8        30.27R
TWIN FALLS     CLEAR     54  29  38 S12       30.24S
$$

IDZ019>023-291100-
SOUTHEAST IDAHO


CITY           SKY/WX    TMP DP  RH WIND       PRES   REMARKS
IDAHO FALLS    CLEAR     41  38  89 N6        30.33R
POCATELLO      CLEAR     44  38  79 CALM      30.31S
REXBURG        CLEAR     42  39  89 NE5       30.34S
$$

IDZ006-010-011-018-031-032-291100-
CENTRAL IDAHO MOUNTAINS


CITY           SKY/WX    TMP DP  RH WIND       PRES   REMARKS
MCCALL         CLEAR     43  35  73 CALM      30.30S
HAILEY         CLEAR     46  36  66 NW12      30.35S
STANLEY          N/A     33  29  85 CALM      30.41S
SALMON         CLEAR     45  39  81 CALM      30.32S
CHALLIS        CLEAR     47  39  74 CALM      30.35R
$$

IDZ002-004-006-007-026-291100-
NORTHERN IDAHO


CITY           SKY/WX    TMP DP  RH WIND       PRES   REMARKS
LEWISTON       CLEAR     58  33  39 S6        30.17S
LOWELL           N/A     52  48  86 NW6       30.28R
COEUR D`ALENE  CLEAR     54  43  66 E3        30.20S
MULLAN PASS    CLEAR     51  33  50 CALM      30.34S
$$


USA.gov is the U.S. government's official web portal to all federal, state and local government web resources and services.